| time (UTC) | temp C | wind direction | speed KPH | gust KPH | rain 1hr cm | rain 24hr cm | rain mn cm | humidity % | barometer mb |
| 20260503003326 | 17 | 295 | 1.6 | 11.3 | 0.00 | 0.41 | 0.00 | 69 | 1024.1 |
| 20260503000325 | 17 | 293 | 3.2 | 9.7 | 0.00 | 0.41 | 0.00 | 66 | 1024.4 |
| 20260502233344 | 16 | 231 | 1.6 | 4.8 | 0.00 | 0.41 | 0.00 | 68 | 1024.4 |
| 20260502230321 | 16 | 295 | 0.0 | 1.6 | 0.00 | 0.51 | 0.00 | 70 | 1024.3 |
| 20260502223341 | 13 | 96 | 0.0 | 0.0 | 0.00 | 0.51 | 0.00 | 80 | 1024.2 |
| 20260502213317 | 10 | 206 | 0.0 | 0.0 | 0.00 | 2.01 | 0.00 | 90 | 1024.7 |
| 20260502210316 | 8 | 217 | 0.0 | 1.6 | 0.00 | 2.79 | 0.00 | 90 | 1024.3 |
| 20260502203315 | 7 | 161 | 0.0 | 0.0 | 0.00 | 2.79 | 0.00 | 92 | 1023.9 |
| 20260502200353 | 7 | 161 | 0.0 | 0.0 | 0.00 | 3.91 | 0.00 | 92 | 1023.6 |
| 20260502193351 | 7 | 161 | 0.0 | 0.0 | 0.00 | 3.91 | 0.00 | 92 | 1023.3 |
| 20260502190328 | 6 | 161 | 0.0 | 0.0 | 0.00 | 3.99 | 0.00 | 91 | 1023.6 |
| 20260502183347 | 6 | 161 | 0.0 | 0.0 | 0.00 | 3.99 | 0.00 | 91 | 1023.5 |
| 20260502180324 | 6 | 161 | 0.0 | 1.6 | 0.00 | 3.99 | 0.00 | 91 | 1023.5 |
| 20260502170321 | 6 | 161 | 0.0 | 1.6 | 0.00 | 3.99 | 0.00 | 89 | 1023.6 |
| 20260502163321 | 6 | 99 | 0.0 | 0.0 | 0.00 | 3.99 | 0.00 | 88 | 1023.2 |
| 20260502160318 | 6 | 99 | 0.0 | 1.6 | 0.00 | 3.99 | 0.00 | 86 | 1023.3 |
| 20260502150352 | 8 | 308 | 0.0 | 4.8 | 0.00 | 3.99 | 0.79 | 79 | 1022.9 |
| 20260502130326 | 8 | 75 | 1.6 | 6.4 | 0.00 | 4.09 | 0.79 | 78 | 1022.7 |
| 20260502123326 | 8 | 73 | 0.0 | 0.0 | 0.00 | 4.09 | 0.79 | 78 | 1022.7 |
| 20260502120324 | 10 | 73 | 0.0 | 0.0 | 0.00 | 5.21 | 0.79 | 76 | 1022.6 |
| 20260502113324 | 10 | 72 | 0.0 | 0.0 | 0.00 | 5.21 | 0.79 | 70 | 1022.7 |
| 20260502110322 | 11 | 72 | 0.0 | 4.8 | 0.00 | 5.21 | 0.79 | 68 | 1022.2 |
| 20260502103321 | 12 | 94 | 0.0 | 1.6 | 0.00 | 5.21 | 0.79 | 65 | 1021.6 |
| 20260502100319 | 14 | 254 | 0.0 | 8.0 | 0.00 | 5.21 | 0.79 | 57 | 1021.0 |
| 20260502090317 | 16 | 319 | 6.4 | 17.7 | 0.00 | 5.31 | 0.79 | 51 | 1020.0 |
| 20260502070326 | 17 | 317 | 11.3 | 37.0 | 0.00 | 5.31 | 0.79 | 44 | 1017.8 |
| 20260502063326 | 17 | 267 | 20.9 | 49.9 | 0.00 | 5.31 | 0.79 | 43 | 1016.9 |
| 20260502060324 | 17 | 356 | 22.5 | 37.0 | 0.10 | 6.50 | 0.79 | 43 | 1016.8 |
| 20260502053325 | 17 | 297 | 12.9 | 33.8 | 0.20 | 6.50 | 0.79 | 44 | 1016.7 |
| 20260502050322 | 17 | 306 | 22.5 | 72.4 | 0.10 | 6.50 | 0.79 | 42 | 1016.2 |
| 20260502043341 | 17 | 298 | 12.9 | 35.4 | 0.00 | 6.40 | 0.76 | 48 | 1016.5 |
| 20260502040318 | 16 | 254 | 11.3 | 43.5 | 0.00 | 6.71 | 0.76 | 48 | 1016.8 |
| 20260502033318 | 17 | 309 | 24.1 | 46.7 | 0.20 | 6.71 | 0.76 | 48 | 1014.7 |
| 20260502030336 | 17 | 291 | 11.3 | 46.7 | 0.20 | 9.50 | 0.76 | 50 | 1013.4 |
| 20260502023336 | 17 | 276 | 17.7 | 41.8 | 0.00 | 9.30 | 0.71 | 52 | 1013.1 |
| 20260502020333 | 16 | 304 | 17.7 | 45.1 | 0.00 | 11.71 | 0.71 | 59 | 1012.7 |
| 20260502013332 | 15 | 310 | 14.5 | 27.4 | 0.00 | 11.71 | 0.71 | 65 | 1013.2 |
| 20260502010330 | 14 | 314 | 19.3 | 40.2 | 0.00 | 13.31 | 0.71 | 67 | 1012.7 |